EW4441 Weather Reports


time (UTC)temp
C
wind
direction
speed
KPH
gust
KPH
rain 1hr
cm
rain 24hr
cm
rain mn
cm
humidity
%
barometer
mb
20260503013005 27 98 0.0 0.0 0.00 0.00 0.00 100 1014.7
20260503011504 27 120 0.0 0.0 0.00 0.00 0.00 100 1014.6
20260503010002 27 122 0.0 0.0 0.00 0.00 0.00 100 1014.4
20260503004502 28 137 0.0 0.0 0.00 0.00 0.00 100 1014.3
20260503001557 27 137 0.0 0.0 0.00 0.00 0.00 100 1013.9
20260503000109 28 166 0.0 0.0 0.00 0.00 0.00 100 1013.7
20260502234557 28 147 0.0 0.0 0.00 0.00 0.00 100 1013.4
20260502233054 28 119 0.0 0.0 0.00 0.00 0.00 100 1013.2
20260502231616 28 150 0.0 0.0 0.00 0.00 0.00 100 1013.0
20260502230054 29 115 0.0 0.0 0.00 0.00 0.00 100 1012.9
20260502224558 30 110 0.0 0.0 0.00 0.00 0.00 100 1012.9
20260502223054 30 110 0.0 0.0 0.00 0.00 0.00 100 1012.6
20260502221557 30 114 0.0 0.0 0.00 0.00 0.00 100 1012.4
20260502220052 31 104 0.0 0.0 0.00 0.00 0.00 100 1012.4
20260502214552 31 110 0.0 0.0 0.00 0.00 0.00 100 1012.2
20260502213053 31 115 0.0 1.6 0.00 0.00 0.00 100 1012.2
20260502211556 31 109 0.0 0.0 0.00 0.00 0.00 100 1012.1
20260502210052 31 121 0.0 0.0 0.00 0.00 0.00 100 1012.0
20260502204552 31 81 0.0 1.6 0.00 0.00 0.00 100 1011.9
20260502203049 32 104 0.0 0.0 0.00 0.00 0.00 100 1011.8
20260502201548 32 105 0.0 3.2 0.00 0.00 0.00 100 1011.8
20260502200048 32 116 0.0 3.2 0.00 0.00 0.00 100 1011.9
20260502194553 32 105 0.0 0.0 0.00 0.00 0.00 100 1012.0
20260502193104 33 100 0.0 0.0 0.00 0.00 0.00 100 1012.1
20260502191559 33 136 0.0 0.0 0.00 0.00 0.00 100 1012.2
20260502190050 33 108 0.0 3.2 0.00 0.00 0.00 100 1012.4
20260502184556 32 122 0.0 3.2 0.00 0.00 0.00 100 1012.8
20260502183044 32 92 1.6 3.2 0.00 0.00 0.00 100 1012.8
20260502181548 32 108 1.6 4.8 0.00 0.00 0.00 100 1013.1
20260502163045 32 103 0.0 1.6 0.00 0.00 0.00 100 1013.9
20260502161600 32 108 0.0 3.2 0.00 0.00 0.00 100 1014.0
20260502151533 31 94 0.0 0.0 0.00 0.00 0.00 100 1014.3
20260502123012 27 79 0.0 0.0 0.00 0.00 0.00 100 1013.6
20260502121507 27 92 0.0 1.6 0.00 0.00 0.00 100 1013.4
20260502114503 26 99 0.0 0.0 0.00 0.00 0.00 100 1013.2
20260502113100 -17 0.0 0.0 0.00 0.00 0.00 1013.3
20260502111556 -17 0.0 0.0 0.00 0.00 0.00 1013.2
20260502104553 -17 0.0 0.0 0.00 0.00 0.00 1012.9
20260502103048 -17 0.0 0.0 0.00 0.00 0.00 1012.8
20260502101553 -17 0.0 0.0 0.00 0.00 0.00 1012.5
20260502091527 -17 0.0 0.0 0.00 0.00 0.00 1012.1
20260502071528 26 134 0.0 0.0 0.00 0.00 0.00 100 1012.2
20260502070012 26 134 0.0 0.0 0.00 0.00 0.00 100 1012.2
20260502064511 26 141 0.0 0.0 0.00 0.00 0.00 100 1012.3
20260502063011 26 142 0.0 0.0 0.00 0.00 0.00 100 1012.5
20260502061512 26 143 0.0 0.0 0.00 0.00 0.00 100 1012.6
20260502060010 26 100 0.0 0.0 0.00 0.00 0.00 100 1012.7
20260502054520 26 100 0.0 0.0 0.00 0.00 0.00 100 1013.0
20260502053009 26 100 0.0 0.0 0.00 0.00 0.00 100 1013.1
20260502051515 26 98 0.0 0.0 0.00 0.00 0.00 100 1013.3
20260502050022 26 89 0.0 0.0 0.00 0.00 0.00 100 1013.4
20260502044507 26 110 0.0 0.0 0.00 0.00 0.00 100 1013.5
20260502043006 26 105 0.0 0.0 0.00 0.00 0.00 100 1013.5
20260502041506 26 86 0.0 0.0 0.00 0.00 0.00 100 1013.5
20260502040007 26 103 0.0 0.0 0.00 0.00 0.00 100 1013.6
20260502033015 26 95 0.0 0.0 0.00 0.00 0.00 100 1013.6
20260502031507 26 106 0.0 0.0 0.00 0.00 0.00 100 1013.5
20260502030017 26 114 0.0 0.0 0.00 0.00 0.00 100 1013.5
20260502024505 26 130 0.0 0.0 0.00 0.00 0.00 100 1013.2
20260502023005 26 106 0.0 0.0 0.00 0.00 0.00 100 1013.0
20260502021504 26 110 0.0 0.0 0.00 0.00 0.00 100 1012.8
20260502020006 27 103 0.0 0.0 0.00 0.00 0.00 100 1012.7
20260502014505 27 119 0.0 0.0 0.00 0.00 0.00 100 1012.6